Location: Colonia Mina de C?rbuni
(46.1667°N, 22.7167°E)
Time: 18:03:08
(UTC+00:00)

Cosmos 2219 Rocket - Pass Details

Date: 04 February 2023
Orbit: 826 x 848 km, 71.0° (Epoch: 29 March)

Event Time Altitude Azimuth Distance (km) Brightness Sun altitude
Rises 16:06:13 0° 149° (SSE) 3,352 5.2 -5.4°
Reaches altitude 10° 16:09:59 10° 124° (ESE) 2,427 4.2 -6.0°
Maximum altitude 16:12:30 13° 96° (E) 2,206 3.8 -6.5°
Drops below altitude 10° 16:15:01 10° 69° (ENE) 2,439 3.9 -6.9°
Enters shadow 16:16:02 - 61° (ENE) 2,641 4.1 -7.0°
